EW8494 Weather Reports


time (UTC)temp
C
wind
direction
speed
KPH
gust
KPH
rain 1hr
cm
rain 24hr
cm
rain mn
cm
humidity
%
barometer
mb
20260507015428 23 313 9.7 0.0 0.00 0.00 0.00 28
20260507014411 23 0.0 0.0 0.00 0.00 0.00 28
20260507013346 23 338 19.3 22.5 0.00 0.00 0.00 28
20260507012307 23 338 11.3 17.7 0.00 0.00 0.00 27
20260507011225 24 338 12.9 17.7 0.00 0.00 0.00 29
20260507010210 25 338 14.5 20.9 0.00 0.00 0.00 29
20260507005219 25 315 6.4 12.9 0.00 0.00 0.00 30
20260507004209 26 338 4.8 8.0 0.00 0.00 0.00 36
20260507003209 26 293 6.4 14.5 0.00 0.00 0.00 31
20260507002214 26 248 9.7 14.5 0.00 0.00 0.00 31
20260507001227 26 225 4.8 8.0 0.00 0.00 0.00 35
20260507000247 27 203 4.8 11.3 0.00 0.00 0.00 35
20260506235208 27 225 6.4 9.7 0.00 0.00 0.00 35
20260506234208 27 225 6.4 12.9 0.00 0.00 0.00 35
20260506233227 27 203 6.4 16.1 0.00 0.00 0.00 32
20260506232206 27 203 9.7 22.5 0.00 0.00 0.00 32
20260506231206 27 203 9.7 20.9 0.00 0.00 0.00 29
20260506230206 28 203 8.0 17.7 0.00 0.00 0.00 27
20260506225204 28 203 11.3 20.9 0.00 0.00 0.00 25
20260506224206 27 203 11.3 22.5 0.00 0.00 0.00 26
20260506223205 27 203 9.7 14.5 0.00 0.00 0.00 27
20260506222205 27 203 8.0 17.7 0.00 0.00 0.00 28
20260506221225 27 203 8.0 16.1 0.00 0.00 0.00 28
20260506220203 27 203 11.3 17.7 0.00 0.00 0.00 27
20260506215225 26 203 11.3 19.3 0.00 0.00 0.00 28
20260506214203 26 203 12.9 22.5 0.00 0.00 0.00 30
20260506213202 27 203 12.9 25.7 0.00 0.00 0.00 28
20260506212202 27 203 14.5 22.5 0.00 0.00 0.00 27
20260506211204 27 203 16.1 27.4 0.00 0.00 0.00 28
20260506210222 27 203 12.9 20.9 0.00 0.00 0.00 29
20260506205201 27 203 14.5 24.1 0.00 0.00 0.00 29
20260506204201 27 203 14.5 25.7 0.00 0.00 0.00 31
20260506203202 27 203 12.9 20.9 0.00 0.00 0.00 29
20260506202159 27 203 11.3 22.5 0.00 0.00 0.00 29
20260506201203 27 225 12.9 22.5 0.00 0.00 0.00 30
20260506200221 27 203 8.0 14.5 0.00 0.00 0.00 30
20260506195201 26 203 6.4 14.5 0.00 0.00 0.00 29
20260506194159 26 225 11.3 19.3 0.00 0.00 0.00 31
20260506193200 26 203 8.0 12.9 0.00 0.00 0.00 32
20260506192212 25 225 8.0 12.9 0.00 0.00 0.00 32
20260506191158 25 203 11.3 24.1 0.00 0.00 0.00 32
20260506190157 25 203 11.3 19.3 0.00 0.00 0.00 35
20260506185200 25 203 9.7 17.7 0.00 0.00 0.00 32
20260506184237 25 203 6.4 11.3 0.00 0.00 0.00 34
20260506183157 25 203 9.7 17.7 0.00 0.00 0.00 33
20260506182217 24 203 9.7 16.1 0.00 0.00 0.00 35
20260506181157 24 203 11.3 20.9 0.00 0.00 0.00 35
20260506180155 23 203 8.0 19.3 0.00 0.00 0.00 36
20260506175156 23 203 9.7 14.5 0.00 0.00 0.00 36
20260506174156 23 203 8.0 14.5 0.00 0.00 0.00 38
20260506173217 23 203 8.0 16.1 0.00 0.00 0.00 37
20260506172154 22 203 9.7 17.7 0.00 0.00 0.00 40
20260506171153 22 203 11.3 22.5 0.00 0.00 0.00 39
20260506170154 22 225 12.9 22.5 0.00 0.00 0.00 42
20260506165154 21 203 9.7 19.3 0.00 0.00 0.00 41
20260506164154 21 225 11.3 20.9 0.00 0.00 0.00 43
20260506163153 21 203 9.7 17.7 0.00 0.00 0.00 43
20260506162153 21 225 11.3 20.9 0.00 0.00 0.00 44
20260506161152 21 225 11.3 19.3 0.00 0.00 0.00 44
20260506160153 20 225 8.0 16.1 0.00 0.00 0.00 47
20260506155213 20 225 8.0 12.9 0.00 0.00 0.00 49
20260506154213 18 225 8.0 11.3 0.00 0.00 0.00 51
20260506153152 18 203 6.4 9.7 0.00 0.00 0.00 53
20260506152150 18 225 4.8 8.0 0.00 0.00 0.00 52
20260506151155 17 225 3.2 6.4 0.00 0.00 0.00 53
20260506150151 17 0.0 0.0 0.00 0.00 0.00 54
20260506145151 17 225 1.6 3.2 0.00 0.00 0.00 53